Location: Gro� Glienicke
(52.4675°N, 13.1079°E)
Time: 18:15:33
(UTC+00:00)

Cosmos 1892 - Pass Details

Date: 06 July 2020
Orbit: 505 x 524 km, 82.5° (Epoch: 11 August)

Event Time Altitude Azimuth Distance (km) Brightness Sun altitude
Exits shadow 22:26:11 - 226° (SW) 1,786 5.1 -14.3°
Reaches altitude 10° 22:26:21 10° 227° (SW) 1,726 5.0 -14.3°
Maximum altitude 22:29:42 30° 290° (WNW) 952 4.3 -14.4°
Drops below altitude 10° 22:33:06 10° 352° (N) 1,749 6.8 -14.5°
Sets 22:35:27 0° 4° (N) 2,644 8.0 -14.5°
